Regional Weather Roundup
Issued by NWS

Home | Current Version | Previous Version | Graphics & Text | Print | Product List | Glossary On
Versions: 1 2 3 4 5 6 7 8 9 10 11 12 13 14 15 16 17 18 19 20 21 22 23 24 25 26 27 28 29 30 31 32 33 34 35 36 37 38 39 40 41 42 43 44 45 46 47 48 49 50
000
ASUS43 KMKX 250500
RWRWI

WISCONSIN REGIONAL WEATHER ROUNDUP
NATIONAL WEATHER SERVICE MILWAUKEE/SULLIVAN WI
1100 PM CST WED DEC 24 2014

NOTE: "FAIR" INDICATES FEW OR NO CLOUDS BELOW 12,000 FEET WITH NO
SIGNIFICANT WEATHER AND/OR OBSTRUCTIONS TO VISIBILITY.

WIZ001-002-006>008-014>016-023>028-250600-
NORTHWEST WISCONSIN

CITY           SKY/WX    TMP DP  RH WIND       PRES   REMARKS
SUPERIOR ARPT  CLOUDY    33  30  90 SW8       29.51F WCI  26
ASHLAND        CLOUDY    33  31  92 SW5       29.52S WCI  29
HAYWARD        CLOUDY    32  27  81 VRB5      29.53S WCI  27
SIREN          CLOUDY    32  30  91 W9        29.55S WCI  24
CUMBERLAND     CLOUDY    32  28  86 SW6       29.54F WCI  26
RICE LAKE      CLOUDY    33  29  85 SW5       29.57S WCI  28
CHETEK         CLOUDY    32  29  86 CALM      29.56F
LADYSMITH      CLOUDY    33  31  92 W5        29.56S WCI  28
EAU CLAIRE     NOT AVBL
MENOMONIE      CLOUDY    34  31  88 SW5       29.59R WCI  30
NEW RICHMOND   CLOUDY    32  31  96 SW7       29.57F WCI  26
OSCEOLA        CLOUDY    33  32  96 SW10      29.60S WCI  25
$$

WIZ003>005-009-010-017-018-250600-
NORTH CENTRAL WISCONSIN

CITY           SKY/WX    TMP DP  RH WIND       PRES   REMARKS
MANITOWISH WTR CLOUDY    29  29 100 W8        29.48S WCI  21
ARBOR VITAE    CLOUDY    32  30  94 W7        29.48R WCI  25
WOODRUFF       CLOUDY    32  30  94 W7        29.48R WCI  25
RHINELANDER    CLOUDY    29  27  92 W13       29.49R WCI  19
EAGLE RIVER    CLOUDY    30  30  99 W7        29.46R WCI  23
LAND O LAKES   CLOUDY    30  30  98 W6        29.46R WCI  24
PHILLIPS       CLOUDY    30  29  94 W3        29.51S
TOMAHAWK       CLOUDY    30  28  94 W7        29.51R WCI  23
MEDFORD        CLOUDY    30  28  90 W9        29.54R WCI  22
MERRILL        MOCLDY    30  29  96 NW8       29.51S WCI  23
$$

WIZ029-030-035-036-043>047-250600-
CENTRAL WISCONSIN

CITY           SKY/WX    TMP DP  RH WIND       PRES   REMARKS
WAUSAU         CLOUDY    31  28  89 W10       29.52R WCI  22
MOSINEE        CLOUDY    32  32 100 W12       29.53R WCI  23
MARSHFIELD     CLOUDY    33  28  81 W9        29.55R WCI  25
STEVENS POINT  CLOUDY    32  29  90 W7        29.54R WCI  25
WAUPACA        CLOUDY    35  32  88 W6        29.54R WCI  30
WAUTOMA        NOT AVBL
WISC RAPIDS    CLOUDY    33  29  85 W7        29.58R WCI  27
CAMP DOUGLAS   NOT AVBL
$$

WIZ011>013-019>022-031-037>040-048>050-250600-
NORTHEAST WISCONSIN

CITY           SKY/WX    TMP DP  RH WIND       PRES   REMARKS
ANTIGO         CLOUDY    30  28  91 W10G16    29.49R WCI  21
SHAWANO        CLOUDY    35  31  87 W5        29.51R WCI  31
OCONTO         CLOUDY    32  32  98 W7        29.48S WCI  26
STURGEON BAY   CLOUDY    32  28  86 W8        29.48S WCI  25
GREEN BAY      CLOUDY    34  31  88 W10       29.51R WCI  26
MANITOWOC      CLOUDY    36  32  87 W9        29.50S WCI  29
APPLETON       MOCLDY    34  32  93 MISG      29.52R
CLINTONVILLE   CLOUDY    32  32 100 W6        29.51R WCI  26
OSHKOSH        CLOUDY    34  30  85 W8        29.54R WCI  27
$$

WIZ032>034-041-042-053>061-250600-
SOUTHWEST WISCONSIN

CITY           SKY/WX    TMP DP  RH WIND       PRES   REMARKS
LA CROSSE      CLOUDY    36  29  75 SW7       29.63R WCI  30
SPARTA         CLOUDY    34  29  82 W5        29.62R WCI  30
VIROQUA        CLOUDY    32  32 100 W8        29.61R WCI  25
BOSCOBEL       CLOUDY    36  28  73 W7        29.65R WCI  30
PRAIRIE DU CHI CLOUDY    35  28  75 W12       29.66R WCI  27
PLATTEVILLE    CLOUDY    34  31  88 W13       29.66R WCI  25
$$

WIZ056-057-062-063-064-067-068-250600-
SOUTH CENTRAL WISCONSIN

CITY           SKY/WX    TMP DP  RH WIND       PRES   REMARKS
REEDSBURG      CLOUDY    33  31  93 W8        29.60R WCI  26
BARABOO/DELLS  CLOUDY    33  31  94 W7        29.59R WCI  27
LONE ROCK      NOT AVBL
MINERAL POINT  CLOUDY    34  32  93 W13       29.62R WCI  25
MADISON        CLOUDY    35  30  82 W7        29.60R WCI  29
MIDDLETON      CLOUDY    35  34  95 W8        29.60S WCI  29
WATERTOWN      CLOUDY    34  32  94 W8        29.57R WCI  27
MONROE         CLOUDY    34  32  93 W13       29.61R WCI  25
JANESVILLE     CLOUDY    36  32  87 W10       29.60R WCI  28
$$

WIZ051-052-058>065-066-070>072-250600-
SOUTHEAST WISCONSIN

CITY           SKY/WX    TMP DP  RH WIND       PRES   REMARKS
MILWAUKEE      CLOUDY    36  30  79 W10G24    29.56R WCI  28
WAUKESHA       CLOUDY    32  32 100 W12       29.57R WCI  23
MILWAUKEE/TIMM CLOUDY    34  30  86 W10G17    29.56R WCI  26
RACINE         CLOUDY    36  30  79 W13       29.58R WCI  27
BURLINGTON     CLOUDY    33  31  92 W13       29.59R WCI  24
KENOSHA        CLOUDY    36  32  85 W13       29.57R WCI  27
FOND DU LAC    CLOUDY    34  30  85 W9        29.55R WCI  27
SHEBOYGAN      CLOUDY    34  31  88 W9        29.52R WCI  27
WEST BEND      CLOUDY    34  30  86 W10       29.53R WCI  26
JUNEAU         CLOUDY    33  31  93 W9        29.56R WCI  25
$$

LSZ147-162-250600-
LAKE SUPERIOR

STATION/POSITION TIME  TEMP    WIND        PRES    WAVE
                       AIR SEA DIR/SP/G            HT/PER
                 (UTC) (F)     (DEG/KT/KT) (MB)    (FT/S)
DEVILS ISLAND    0400   34     240/ 10/ 11  999.8F
PORT WING        0400   33     220/  5/  9 1000.3S
SAXON HARBOR     0400   34     210/  3/  6  999.7S
$$

LMZ867-665-643>646-250600-
LAKE MICHIGAN

STATION/POSITION TIME  TEMP    WIND        PRES    WAVE
                       AIR SEA DIR/SP/G            HT/PER
                 (UTC) (F)     (DEG/KT/KT) (MB)    (FT/S)
CHAMBERS ISLAND  0400   33     260/  3/  8  998.0
NORTHPORT PIER   0400   33     300/ 10/ 14  997.3R
SISTER BAY       0413          310/ 13/ 15   N/A
ALGOMA LAKESHORE 0415          320/ 11/ 16   N/A
KEWAUNEE LAKESHO 0400   34     300/  9/ 12  997.4R
SHEBOYGAN LAKESH 0400   35 36  280/ 10/ 12 1000.0R
PORT WASHINGTON  0400   36     290/  9/ 13 1000.7
MILWAUKEE LAKESH 0400   36     290/ 14/ 18   N/A
KENOSHA   LAKESH 0400   37     280/ 14/ 18 1001.0R
$$

TC  - TEMPERATURE IN CELSIUS
VSB - VISIBILITY IN STATUTE MILES
WCI - WIND CHILL INDEX
HX  - HEAT INDEX




USA.gov is the U.S. government's official web portal to all federal, state and local government web resources and services.